Location: Watson Lake
(60.1170°N, 128.8000°W)
Time: 23:20:24
(UTC-07:00)

Daily predictions for brighter satellites

Satellite Brightness Start Highest point End
(mag) Time Altitude Azimuth Time Altitude Azimuth Time Altitude Azimuth
NOSS 2-1 (E) 3.7 20:34:11 10° SW 20:38:23 72° SE 20:43:45 10° ENE
Cosmos 1898 Rocket 3.8 20:34:27 10° S 20:39:27 44° ESE 20:44:28 10° NE
Elektron 1 3.7 20:37:15 10° WSW 20:40:30 80° SSE 20:43:24 10° ENE
Meteor 1-24 Rocket 4.0 20:36:11 10° NNW 20:41:35 74° WSW 20:47:06 10° S
Cosmos 1048 Rocket 4.0 20:37:23 10° NNW 20:42:34 74° NE 20:47:41 10° SE
Envisat 3.2 20:38:03 10° SE 20:43:01 56° ENE 20:48:01 10° NNW
Cosmos 1934 Rocket 4.0 20:40:24 10° S 20:46:21 56° E 20:52:16 10° NNE
FENGYUN 3A 4.4 20:41:19 10° S 20:46:39 58° WSW 20:52:01 10° NNW
NOSS 7 (E) 4.5 20:43:23 10° SW 20:46:41 70° SSE 20:50:28 10° ENE
Lacrosse 5 rocket 2.0 20:42:56 10° W 20:46:52 45° SSW 20:50:34 10° SE
SAR-Lupe-1 4.0 20:43:17 10° SSE 20:46:53 73° ENE 20:50:29 10° NNW
SL-27 R/B 4.0 20:46:44 10° NW 20:50:04 39° WSW 20:53:25 10° S
RESURS DK-1 4.0 20:46:27 10° NW 20:50:15 35° WSW 20:54:02 10° S
Cosmos 2263 Rocket 2.5 20:46:14 10° SW 20:51:54 73° NW 20:57:33 10° NE
CZ-4B DEB 2.7 20:48:50 10° SSE 20:51:54 60° ENE 20:55:00 10° N
Cosmos 1184 Rocket 4.3 20:49:54 10° N 20:52:42 23° ENE 20:55:23 11° ESE
Meteor 1-29 4.3 20:51:03 10° NE 20:53:46 21° E 20:56:30 10° SE
COSMOS 2487 2.5 20:50:50 10° NNW 20:54:25 71° ENE 20:58:00 10° SE
Meteor 1-4 Rocket 3.9 20:52:01 10° SE 20:54:34 19° E 20:57:09 10° NE
Cosmos 2082 Rocket 2.3 20:50:44 10° NW 20:56:31 86° SW 21:02:13 10° SE
Cosmos 1544 4.0 20:53:28 10° SSE 20:56:38 28° E 20:59:50 10° NNE
Cosmos 1766 3.4 20:53:57 10° S 20:57:42 49° E 21:01:30 10° NNE
ALOS 3.7 20:55:08 10° S 20:59:35 42° W 21:04:04 10° NNW
Cosmos 1818 4.3 20:54:33 10° WNW 20:59:52 52° SW 21:05:07 10° SSE
GP-B 3.5 20:55:45 10° SSE 20:59:56 43° E 21:04:10 10° N
Cosmos 1812 Rocket 3.5 20:55:47 10° S 21:00:09 67° E 21:04:32 10° NNE
Resurs 01 Rocket 2.6 20:56:49 10° S 21:01:08 52° W 21:05:30 10° NNW
Cosmos 2151 4.2 21:01:56 10° N 21:05:33 25° ENE 21:08:36 13° ESE
Cosmos 1271 Rocket 4.4 21:03:26 11° SE 21:05:57 17° E 21:08:37 10° NE
Cosmos 1766 Rocket 3.6 21:01:52 10° N 21:06:20 64° ENE 21:10:48 10° SSE
Cosmos 1821 Rocket 4.1 21:00:06 10° S 21:06:30 84° E 21:12:52 10° NNE
Cosmos 1076 Rocket 3.4 21:02:29 10° NNW 21:06:48 80° ENE 21:11:03 10° SSE
Cosmos 2251 Rocket 3.9 21:02:49 10° NNW 21:08:01 51° NE 21:12:48 12° ESE
USA 267 3.6 21:02:07 10° ESE 21:08:34 59° SSW 21:15:03 10° W
ERS-1 Rocket 3.2 21:04:25 10° SE 21:09:21 56° ENE 21:14:19 10° NNW
Cosmos 1937 Rocket 3.6 21:07:00 10° S 21:12:09 56° ESE 21:17:22 10° NE
NOSS 3-3 (A) 4.4 21:06:23 10° WSW 21:12:59 76° NNW 21:20:18 10° ENE
Cosmos 2228 4.1 21:08:51 10° SW 21:12:59 49° WNW 21:17:10 10° N
NOSS 3-3 (C) 4.4 21:06:28 10° WSW 21:13:04 76° NNW 21:20:24 10° ENE
Cosmos 1269 Rocket 4.2 21:09:09 10° NW 21:14:28 76° WSW 21:19:44 10° SSE
SPOT 1/Viking Rocket 4.4 21:10:27 12° ESE 21:14:39 34° NE 21:19:20 10° N
Lacrosse 5 3.3 21:11:37 10° S 21:14:47 17° SE 21:16:45 14° ESE
Cosmos 2058 4.2 21:12:43 10° N 21:16:16 25° ENE 21:18:49 15° ESE
Cosmos 2084 Rocket 3.5 21:13:06 10° SSW 21:16:52 45° SE 21:20:32 10° ENE
Cosmos 2298 Rocket 4.0 21:15:08 10° SSW 21:20:25 71° ESE 21:25:46 10° NE
Cosmos 405 3.8 21:17:21 10° SSW 21:20:49 55° WNW 21:24:19 10° N
Meteor 1-21 Rocket 4.4 21:16:03 10° NNW 21:21:50 85° WSW 21:27:41 10° SSE
SPOT 5 3.5 21:17:05 12° SE 21:21:50 46° ENE 21:26:54 10° NNW
Helios 1B rocket 2.7 21:19:28 10° NNE 21:23:31 48° E 21:27:31 10° S
Cosmos 2100 Rocket 4.5 21:18:01 10° SSE 21:23:50 40° E 21:29:41 10° NNE
Cosmos 1674 2.6 21:20:13 10° NNW 21:24:01 82° ENE 21:27:48 10° SSE
Cosmos 1605 Rocket 4.0 21:18:07 10° S 21:24:22 71° E 21:30:45 10° NNE
Cosmos 1844 3.8 21:21:39 10° SSW 21:27:21 60° ESE 21:33:05 10° NE
Cosmos 2098 Rocket 4.5 21:20:56 10° S 21:28:11 61° E 21:35:36 10° NNE
ARGOS 3.5 21:29:44 15° SE 21:34:05 50° ENE 21:39:15 10° NNW
Cosmos 1805 3.2 21:30:23 10° S 21:34:14 62° E 21:38:08 10° NNE
Cosmos 1340 Rocket 2.8 21:30:42 10° NNW 21:34:49 77° ENE 21:38:31 12° SSE
Helios 1A 4.1 21:31:23 10° S 21:35:24 45° W 21:39:29 10° NNW
Cosmos 1437 Rocket 3.5 21:33:39 10° SSW 21:37:39 58° WNW 21:41:45 10° NNE
Cosmos 2297 Rocket 3.9 21:33:12 10° WNW 21:38:01 28° N 21:42:52 10° ENE
Cosmos 1743 Rocket 3.6 21:33:57 10° N 21:38:21 65° ENE 21:42:05 14° SSE
MetOp-A 4.2 21:34:38 12° SE 21:39:30 67° ENE 21:44:50 10° NNW
Cosmos-2242 3.5 21:35:43 10° SSE 21:39:39 38° E 21:43:38 10° NNE
Cosmos 1500 Rocket 3.7 21:36:54 10° N 21:41:12 54° ENE 21:44:13 18° SE
Cosmos 1802 Rocket 4.4 21:35:38 10° SSE 21:41:18 41° E 21:47:02 10° NNE
Intercosmos 24 Rocket 4.5 21:38:54 10° SSW 21:43:45 88° WNW 21:47:29 10° NNE
Lacrosse 4 Rocket 1.2 21:39:48 10° SSW 21:43:49 64° SE 21:47:53 10° NE
Coronas F rocket 2.9 21:43:37 10° NNE 21:44:50 17° NE 21:44:50 17° NE
Cosmos 1470 3.2 21:44:19 14° SSE 21:47:20 39° E 21:51:04 10° NNE
OPS 0252 4.5 21:44:36 10° SW 21:47:38 68° SSE 21:49:51 17° ENE
H-2A R/B 2.9 21:47:32 22° ESE 21:49:26 33° ENE 21:53:08 10° N
Cosmos 2061 Rocket 4.3 21:43:23 10° SSE 21:49:31 49° E 21:55:41 10° NNE
Terra 2.8 21:51:56 21° ESE 21:54:16 32° NE 21:58:29 10° N
ATLAS CENTAUR R/B 1.3 21:54:47 10° WSW 21:55:56 30° SW 21:55:56 30° SW
Cosmos 2221 4.2 21:57:23 17° E 21:57:23 17° E 22:00:05 10° NE
YAOGAN 6 2.8 21:55:08 14° S 21:58:16 73° WSW 22:02:02 10° NNW
Cosmos 1758 3.2 21:55:00 10° SSW 21:58:59 88° ESE 22:03:02 10° NNE
Cosmos 372 Rocket 4.4 21:54:34 10° S 21:59:14 37° ESE 22:03:58 10° NE
CZ-3B DEB 2.7 21:52:55 10° SW 21:59:34 30° SSE 22:01:05 25° SE
CZ-4 DEB 3.3 22:00:07 30° ENE 22:00:07 30° ENE 22:02:27 10° N
Cosmos 1408 Rocket 4.4 21:57:37 10° NNW 22:01:58 51° W 22:06:18 10° S
Cosmos 2227 Rocket 3.8 21:58:55 10° NW 22:03:51 29° N 22:08:45 10° ENE
USA 186 4.4 22:03:22 10° WSW 22:03:56 11° W 22:04:30 10° WNW
Cosmos 1939 Rocket 4.1 22:02:32 10° S 22:06:30 42° W 22:10:30 10° NNW
Cosmos 1328 3.7 22:02:30 10° NNW 22:06:32 88° ENE 22:08:57 23° SSE
Cosmos 1626 2.9 22:03:45 10° N 22:07:16 36° ENE 22:08:11 31° E
NOSS 2-1 (D) 4.2 22:03:02 10° W 22:07:28 65° N 22:13:15 10° ENE
NOSS 2-1 (C) 4.2 22:03:23 10° W 22:07:48 66° NNW 22:13:36 10° ENE
Cosmos 2150 Rocket 4.3 22:03:47 10° SW 22:08:55 69° NW 22:14:08 10° NNE
Cosmos 1953 2.4 22:05:09 10° SSW 22:09:14 81° WNW 22:13:20 10° NNE
SL-14 R/B 3.1 22:06:21 10° NNW 22:10:14 86° E 22:12:15 27° SSE
Cosmos 1844 Rocket 2.9 22:04:36 10° SW 22:10:16 74° NW 22:15:56 10° NE
H-2A R/B 2.3 22:07:10 25° SE 22:10:16 58° ENE 22:15:28 10° NNW
Cosmos 1833 Rocket 3.9 22:05:32 10° NW 22:10:43 39° WSW 22:15:53 10° S
Cosmos 1733 3.2 22:08:58 19° S 22:11:33 60° E 22:15:26 10° NNE
Cosmos 494 Rocket 4.0 22:06:51 10° NW 22:12:00 76° WSW 22:15:18 22° SSE
USA 215 3.9 22:07:47 10° ENE 22:13:33 32° SE 22:19:18 10° SSW
MOS 1-B Rocket 4.5 22:08:23 19° SE 22:14:13 72° ENE 22:20:53 10° NNW
YAOGAN 11 4.4 22:14:30 17° S 22:17:59 69° WSW 22:22:33 10° NNW
NOAA 11 4.3 22:15:11 17° SSE 22:19:33 78° WSW 22:25:07 10° NNW
Cosmos 2278 Rocket 2.1 22:14:15 10° SSW 22:19:55 77° SE 22:25:38 10° NE
Meteor 1-11 4.2 22:14:19 10° NNW 22:19:57 90° WSW 22:23:45 21° SSE
IGS 5A 4.2 22:19:55 31° E 22:21:02 38° ENE 22:24:53 10° N
Cosmos 1842 Rocket 3.8 22:19:45 33° SE 22:21:14 46° E 22:25:28 10° NNE
Cosmos 1898 Rocket 4.4 22:16:22 10° SW 22:21:34 53° NW 22:26:44 10° NNE
Cosmos 990 Rocket 4.3 22:16:32 10° SW 22:21:47 70° NW 22:27:03 10° NNE
Envisat 4.5 22:17:39 10° SSW 22:22:19 36° W 22:27:01 10° NNW
Cosmos 1459 Rocket 3.9 22:17:15 10° S 22:23:30 78° E 22:29:41 10° NNE
Cosmos 1356 Rocket 3.6 22:20:58 10° NNW 22:25:10 70° WSW 22:27:25 26° S
Lacrosse 5 rocket 3.0 22:22:29 10° W 22:25:23 20° SW 22:26:35 17° SSW
Cosmos 2173 Rocket 3.9 22:19:32 10° S 22:25:44 79° E 22:32:04 10° NNE
Geosat 4.0 22:21:30 10° NE 22:26:35 87° NW 22:31:38 10° SW
Meteor 1-29 3.7 22:23:32 10° N 22:26:56 54° WNW 22:30:19 10° SW
Cosmos 1184 Rocket 3.6 22:23:45 10° NNW 22:27:06 50° W 22:28:42 26° SSW
NOSS 2-1 (E) 4.4 22:24:38 10° W 22:29:12 63° N 22:35:02 11° ENE
Meteor 1-4 Rocket 3.1 22:25:59 10° SSW 22:29:25 57° WNW 22:32:54 10° N
Cosmos 1125 Rocket 3.4 22:24:35 10° SSW 22:29:46 69° ESE 22:35:00 10° NE
Cosmos 1544 4.4 22:28:11 10° SW 22:31:41 41° WNW 22:35:14 10° N
Cosmos 2297 3.8 22:26:51 10° SSW 22:32:25 56° ESE 22:38:04 10° NE
Cosmos 2263 Rocket 3.8 22:31:35 10° W 22:36:41 33° NNW 22:41:47 10° NE
PSLV R/B 3.8 22:39:05 42° NE 22:39:05 42° NE 22:41:31 10° N
Cosmos 2219 4.0 22:33:17 10° NW 22:38:43 43° NNE 22:41:35 25° E
Cosmos 2344 3.8 22:31:18 10° SW 22:39:12 75° SE 22:49:07 10° ENE
Cosmos 2082 Rocket 4.0 22:35:24 10° NW 22:39:58 25° WSW 22:44:32 10° SSW
Cosmos 1271 Rocket 2.8 22:38:32 18° SSW 22:41:29 84° WNW 22:45:33 10° NNE
CZ-4C R/B 4.3 22:42:15 35° E 22:43:09 40° ENE 22:47:18 10° N
Cosmos 2151 3.3 22:39:00 10° NNW 22:43:16 65° W 22:45:13 30° S
ATLAS 5 CENTAUR R/B 4.2 22:47:36 11° ENE 22:47:36 11° ENE 22:47:49 10° ENE
Cosmos 1703 3.1 22:40:04 10° NNW 22:44:04 84° E 22:44:55 54° SSE
SL-08 RB Rocket 4.0 22:45:41 30° S 22:47:56 69° WSW 22:52:37 10° NNW
ERS-1 Rocket 4.4 22:43:47 10° SSW 22:48:25 35° W 22:53:04 10° NNW
Cosmos 2251 Rocket 4.3 22:45:17 10° NW 22:50:21 46° WSW 22:53:18 23° S
USA 267 4.3 22:49:22 22° S 22:52:29 33° SW 22:58:18 10° WNW
Meteor 1-16 Rocket 4.2 22:49:07 23° S 22:52:56 72° ESE 22:58:53 10° NNE
Cosmos 2058 3.3 22:49:26 10° NNW 22:53:36 62° W 22:55:04 37° SSW
CARTOSAT-1 3.5 22:52:52 53° SE 22:53:46 72° ENE 22:58:07 10° NNW
SPOT 1/Viking Rocket 3.8 22:51:05 28° S 22:53:49 67° WSW 22:59:04 10° NNW
Cosmos 1666 Rocket 3.5 22:50:00 10° N 22:54:20 63° ENE 22:55:00 54° ESE
Cosmos 2084 Rocket 3.3 22:52:23 10° WSW 22:56:16 71° NNW 22:57:42 36° ENE
Lacrosse 5 2.4 22:52:01 10° SW 22:56:01 38° S 22:56:01 38° S
Cosmos 2016 Rocket 3.9 22:51:09 12° SSW 22:56:56 89° WNW 23:03:08 10° NNE
ALOS 2 4.3 22:56:45 19° ENE 22:57:36 20° NE 23:00:51 10° N
Helios 1B rocket 4.2 22:55:00 10° N 22:58:45 33° WNW 23:02:28 10° WSW
SPOT 5 3.9 22:56:20 19° SSW 22:59:56 48° W 23:05:06 10° NNW
Cosmos 389 Rocket 3.2 23:01:04 43° NE 23:01:04 43° NE 23:03:41 10° NNE
Sich 1 3.0 22:56:07 10° N 23:00:31 68° ENE 23:01:10 58° ESE
Cosmos 1633 Rocket 3.1 22:56:26 10° N 23:00:52 62° ENE 23:01:27 56° ESE
Cosmos 1725 Rocket 3.9 22:59:11 26° S 23:02:55 77° E 23:09:08 10° NNE
Tsikada Rocket 4.3 22:57:26 10° NNW 23:03:34 63° W 23:07:31 23° S
NOSS 3-3 (A) 4.5 22:57:44 10° WNW 23:04:33 70° N 23:09:50 21° E
NOSS 3-3 (C) 4.5 22:57:49 10° WNW 23:04:39 70° N 23:09:56 21° E
Cosmos 1933 Rocket 4.2 23:00:38 10° N 23:04:46 39° ENE 23:05:00 38° ENE
Timation 1 Rocket 4.2 23:00:03 10° SW 23:06:05 85° SE 23:12:10 10° NE
ARGOS 4.1 23:11:14 21° SSW 23:14:29 43° W 23:19:37 10° NNW
Coronas F rocket 4.1 23:13:43 10° NW 23:14:25 15° NW 23:14:25 15° NW
DMSP B5D2-2 4.3 23:10:52 10° NNE 23:15:56 47° E 23:16:07 47° ESE
Landsat 7 4.1 23:15:03 41° SSW 23:16:30 62° WSW 23:21:16 10° NNW
Cosmos-2242 4.3 23:13:15 10° SW 23:17:16 39° WNW 23:21:19 10° N
Spot 4 3.8 23:18:12 59° SE 23:19:02 75° ENE 23:23:53 10° NNW
Cosmos 407 Rocket 3.7 23:15:33 10° NNW 23:20:53 64° NE 23:22:02 50° ESE
CZ-4B R/B 4.2 23:20:42 11° NE 23:20:56 11° NE 23:22:09 10° NNE
Cosmos 1805 Rocket 3.9 23:17:43 10° NNW 23:22:05 62° W 23:22:56 50° SSW
Lacrosse 4 Rocket 2.6 23:18:53 10° W 23:22:45 41° NNW 23:26:40 10° NE
Cosmos 1470 4.4 23:19:51 10° SW 23:23:31 34° WNW 23:27:12 10° N
Cosmos 2297 Rocket 3.4 23:18:19 10° NW 23:23:34 36° NNE 23:26:33 22° ENE
Meteor 2-3 Rocket 4.3 23:19:15 10° N 23:24:35 42° ENE 23:25:44 37° E
H-2A R/B 2.6 23:24:40 42° SW 23:25:23 48° WSW 23:29:23 10° NNW
Cosmos 1867 3.5 23:21:08 10° SW 23:26:32 64° SE 23:31:58 10° ENE
Cosmos 1833 4.1 23:21:32 10° NW 23:27:10 78° SW 23:28:27 54° SSE
SL-24 R/B - RUBIN 2 4.3 23:20:47 10° WNW 23:27:17 83° SW 23:28:52 52° SE
Terra 2.1 23:30:48 50° SSW 23:31:48 63° WSW 23:36:33 10° NNW
Cosmos 1470 Rocket 3.6 23:28:22 10° N 23:32:52 67° ENE 23:32:53 67° ENE
Cosmos 1908 4.5 23:35:20 33° NE 23:35:20 33° NE 23:37:47 10° NNE
Cosmos 2221 2.4 23:34:13 85° ESE 23:34:14 85° ESE 23:38:40 10° NNE
SL-19 R/B 4.5 23:30:59 10° NNE 23:37:04 64° ESE 23:38:28 51° SSE
Aureole 3 4.0 23:36:06 10° N 23:39:06 45° NE 23:39:06 45° NE
Cosmos 372 Rocket 4.4 23:35:45 10° SW 23:40:51 60° NW 23:46:01 10° NNE
Cosmos 1626 3.5 23:39:14 10° NNW 23:42:38 33° W 23:42:52 32° W
Cosmos 2369 Rocket 3.0 23:45:46 35° E 23:45:46 35° E 23:49:40 10° NE
Cosmos 2227 Rocket 2.9 23:43:40 10° NW 23:49:11 47° NE 23:51:04 35° E
H-2A R/B 3.3 23:47:48 26° SW 23:49:57 37° W 23:54:53 10° NNW
Cosmos 1092 Rocket 4.2 23:45:15 10° N 23:51:20 56° ENE 23:52:31 49° ESE
